Flag for Germany Weather past 2 weeks in Soltau, Lower Saxony, Germany

Now
64 °F

Partly sunny.


Feels Like: 64 °F
Forecast: 61 / 70 °F
Wind: 1 mph from North

Location: Fassberg

Current Time: Jul 24, 2014 at 7:54:54 PM

Latest Report: Jul 24, 2014 at 7:20 PM


Visibility: N/A

Pressure: 30.04 "Hg

Humidity: 94%

Dew point: 63 °F

Location of SoltauLocation

Historic Weather in Soltau — Graph

°F

Soltau temperature yesterday

Maximum temperature yesterday: 82 °F (at 4:20 PM)
Minimum temperature yesterday: 61 °F (at 4:20 AM)
Average temperature yesterday: 71 °F

Past Weeks' High & Low Weather Summary

 TemperatureHumidityPressure
High88 °F (Jul 19, 1:20 PM)100% (Jul 9, 10:20 PM)30.21 "Hg (Jul 9, 10:20 PM)
Low50 °F (Jul 12, 5:20 AM)31% (Jul 19, 4:20 PM)29.65 "Hg (Jul 9, 6:01 PM)
Average69 °F71%29.97 "Hg
* Reported Jul 9 6:01 PM — Jul 24 6:20 PM, Soltau, Weather by CustomWeather, © 2014

Note: Actual official high and low records may vary slightly from our data, if they occured in-between our weather recording intervals... More about our weather records

Advertising

Soltau weather history for previous 24 hours

 ConditionsComfort  
Time TempWeatherWind HumidityBarometerVisibility
6:20 PM
Jul 24
63 °FThunderstorms. Broken clouds.8 mph94%30.07 "Hg5 mi
6:03 PM64 °FThunderstorms. Partly sunny.10 mph88%30.07 "Hg4 mi
5:20 PM73 °FThunderstorms. Partly sunny.8 mph61%30.04 "HgN/A
4:20 PM75 °FPartly sunny.6 mph57%30.04 "HgN/A
3:20 PM73 °FPartly sunny.8 mph53%30.04 "HgN/A
2:20 PM72 °FBroken clouds.9 mph65%30.07 "HgN/A
1:20 PM72 °FScattered showers. Broken clouds.8 mph65%30.07 "HgN/A
12:20 PM70 °FBroken clouds.7 mph69%30.07 "HgN/A
11:20 AM70 °FBroken clouds.10 mph64%30.07 "HgN/A
10:20 AM68 °FBroken clouds.9 mph69%30.07 "HgN/A
9:20 AM66 °FPartly sunny.9 mph73%30.07 "HgN/A
8:20 AM64 °FScattered clouds.12 mph78%30.07 "HgN/A
7:20 AM61 °FScattered clouds.8 mph83%30.07 "HgN/A
6:20 AM59 °FPassing clouds.7 mph88%30.07 "HgN/A
5:20 AM59 °FPassing clouds.7 mph82%30.07 "HgN/A
4:20 AM59 °FPassing clouds.7 mph82%30.07 "HgN/A
2:20 AM61 °FPassing clouds.7 mph72%30.07 "HgN/A
1:20 AM63 °FPassing clouds.9 mph68%30.09 "HgN/A
12:20 AM63 °FPassing clouds.6 mph68%30.09 "HgN/A
11:20 PM
Jul 23
66 °FPassing clouds.8 mph60%30.09 "HgN/A
10:20 PM68 °FPassing clouds.8 mph56%30.09 "HgN/A
9:20 PM72 °FPassing clouds.7 mph50%30.07 "HgN/A
8:20 PM77 °FPassing clouds.9 mph42%30.07 "HgN/A
7:20 PM77 °FPassing clouds.13 mph44%30.07 "HgN/A
Weather by CustomWeather, © 2014

See weather overviewHow to use our weather pages